Flag for U.S.A. Weather past 2 weeks in Fargo, North Dakota, U.S.A.

Now
60 °F

Sunny.


Feels Like: 60 °F
Forecast: 41 / 61 °F
Wind: 15 mph from Northwest

Location: Hector International Airport

Current Time: Oct 25, 2014 at 2:54:24 PM

Latest Report: Oct 25, 2014 at 1:53 PM


Visibility: 10 mi

Pressure: 30.11 "Hg

Humidity: 30%

Dew point: 28 °F

Location of FargoLocation

Historic Weather in Fargo — Graph

°F

Fargo temperature yesterday

Maximum temperature yesterday: 77 °F (at 2:53 PM)
Minimum temperature yesterday: 45 °F (at 6:53 AM)
Average temperature yesterday: 57 °F

Past Weeks' High & Low Weather Summary

 TemperatureHumidityPressure
High77 °F (Oct 24, 2:53 PM)96% (Oct 13, 3:53 AM)31.01 "Hg (Oct 13, 3:53 AM)
Low33 °F (Oct 14, 6:53 AM)25% (Oct 15, 3:53 PM)29.49 "Hg (Oct 16, 12:53 PM)
Average52 °F64%29.92 "Hg
* Reported Oct 10 1:53 PM — Oct 25 1:53 PM, Fargo, Weather by CustomWeather, © 2014

Note: Actual official high and low records may vary slightly from our data, if they occured in-between our weather recording intervals... More about our weather records

Advertising

Fargo weather history for previous 24 hours

 ConditionsComfort  
Time TempWeatherWind HumidityBarometerVisibility
1:53 PM
Oct 25
60 °FSunny.15 mph30%30.11 "Hg10 mi
12:53 PM58 °FSunny.18 mph33%30.11 "Hg10 mi
11:53 AM56 °FSunny.14 mph39%30.13 "Hg10 mi
10:53 AM54 °FSunny.14 mph45%30.12 "Hg10 mi
9:53 AM49 °FSunny.15 mph55%30.11 "Hg10 mi
8:53 AM43 °FClear.12 mph65%30.09 "Hg10 mi
7:53 AM40 °FClear.10 mph70%30.08 "Hg10 mi
6:53 AM42 °FClear.10 mph68%30.05 "Hg10 mi
5:53 AM43 °FClear.9 mph65%30.04 "Hg10 mi
4:53 AM43 °FClear.10 mph65%30.03 "Hg10 mi
3:53 AM43 °FClear.9 mph62%30.01 "Hg10 mi
2:53 AM45 °FClear.10 mph58%30.00 "Hg10 mi
1:53 AM45 °FClear.10 mph58%29.99 "Hg10 mi
12:53 AM46 °FClear.9 mph56%29.98 "Hg10 mi
11:53 PM
Oct 24
48 °FClear.10 mph54%29.96 "Hg10 mi
10:53 PM50 °FClear.10 mph50%29.94 "Hg10 mi
9:53 PM53 °FClear.8 mph47%29.92 "Hg10 mi
8:53 PM58 °FClear.10 mph41%29.89 "Hg10 mi
7:53 PM62 °FClear.16 mph35%29.87 "Hg10 mi
6:53 PM66 °FSunny.16 mph36%29.85 "Hg10 mi
5:53 PM72 °FSunny.20 mph31%29.80 "Hg10 mi
4:53 PM75 °FSunny.17 mph30%29.78 "Hg10 mi
3:53 PM77 °FSunny.21 mph28%29.77 "Hg10 mi
2:53 PM77 °FSunny.18 mph29%29.76 "Hg10 mi
Weather by CustomWeather, © 2014

See weather overviewHow to use our weather pages